Weather in Boston

United States     42°21′21″N   71°04′25″W
temp.,
°C
wind,
m/s
gust,
m/s
humid.,
%
clouds,
%
prec.,
mm/h
press.,
hPa
HPBL,
m
18 may, tue
tue1823:00+13wsw288364 0.0 1025183
02:00+13w37846 0.0 1025130
05:00+12wsw2481100 0.0 102476
08:00+16w3764100 0.0 1024189
11:00+23wnw47349 0.1 10232123
14:00+22w474266 0.1 1022970
17:00+21wsw3746100 0.1 1021343
20:00+19w3463100 0.2 102284
19 may, wed
wed1923:00+17wnw3869100 0.2 1022215
02:00+16nw3872100 0.2 1023197
05:00+14wnw2577100 0.0 1023109
08:00+17nnw366269 0.0 1024346
11:00+19ne46485 0.0 10261033
14:00+20ene44425 0.0 1025760
17:00+19ese44405 0.0 1025439
20:00+16se244639 0.0 1026126
20 may, thu
thu2023:00+15s114755 0.0 102831
02:00+14wnw115334 0.0 102911
05:00+12e22585 0.0 103034
08:00+14e2457100 0.0 1032320
11:00+16ene445366 0.0 1032580
14:00+17ene44526 0.0 1032594
17:00+17e435482 0.0 1032475
20:00+14ese246867 0.0 1032184
21 may, fri
fri2123:00+12s237113 0.0 103291
02:00+12ssw227183 0.0 103264
05:00+11sw238039 0.0 103180
08:00+16ssw226377 0.0 1031224
11:00+22s1348100 0.0 1030650
14:00+24se2345100 0.0 10281145
17:00+22ssw4653100 0.0 1027617
20:00+17ssw4866100 0.0 1027237
22 may, sat
sat2223:00+16ssw3677100 0.0 1026149
02:00+16ssw3581100 0.0 1024137
05:00+15ssw2487100 0.0 1023127
08:00+16ssw2396100 0.8 1022122
11:00+16ssw2598100 2.3 1021188
14:00+16ssw3698100 5.0 1019230
17:00+16ssw3699100 1.5 1017199
20:00+16ssw3799100 1.9 1015203